| time (UTC) | temp C | wind direction | speed KPH | gust KPH | rain 1hr cm | rain 24hr cm | rain mn cm | humidity % | barometer mb |
| 20260902021506 | 30 | 110 | 4.8 | 6.4 | 0.00 | 0.00 | 0.00 | 75 | 1018.3 |
| 20260902020004 | 30 | 115 | 4.8 | 9.7 | 0.00 | 0.00 | 0.00 | 74 | 1018.3 |
| 20260902014504 | 31 | 109 | 6.4 | 12.9 | 0.00 | 0.00 | 0.00 | 72 | 1018.1 |
| 20260902013003 | 31 | 112 | 3.2 | 6.4 | 0.00 | 0.00 | 0.00 | 71 | 1018.2 |
| 20260902011507 | 31 | 115 | 3.2 | 6.4 | 0.00 | 0.00 | 0.00 | 72 | 1018.1 |
| 20260902010000 | 31 | 113 | 3.2 | 9.7 | 0.00 | 0.00 | 0.00 | 71 | 1018.5 |
| 20260902004602 | 32 | 114 | 4.8 | 9.7 | 0.00 | 0.00 | 0.00 | 68 | 1017.8 |
| 20260902003101 | 32 | 97 | 3.2 | 6.4 | 0.00 | 0.00 | 0.00 | 67 | 1017.8 |
| 20260902001559 | 33 | 109 | 3.2 | 6.4 | 0.00 | 0.00 | 0.00 | 65 | 1017.8 |
| 20260902000057 | 33 | 108 | 1.6 | 4.8 | 0.00 | 0.00 | 0.00 | 62 | 1017.8 |
| 20260901234556 | 34 | 107 | 1.6 | 4.8 | 0.00 | 0.00 | 0.00 | 60 | 1017.9 |
| 20260901233102 | 35 | 111 | 3.2 | 9.7 | 0.00 | 0.00 | 0.00 | 59 | 1018.0 |
| 20260901231557 | 35 | 122 | 3.2 | 9.7 | 0.00 | 0.00 | 0.00 | 57 | 1018.1 |
| 20260901230055 | 35 | 122 | 4.8 | 8.0 | 0.00 | 0.00 | 0.00 | 58 | 1018.2 |
| 20260901224556 | 35 | 127 | 6.4 | 12.9 | 0.00 | 0.00 | 0.00 | 58 | 1018.2 |
| 20260901223055 | 35 | 116 | 8.0 | 17.7 | 0.00 | 0.00 | 0.00 | 56 | 1018.0 |
| 20260901221549 | 35 | 138 | 4.8 | 12.9 | 0.00 | 0.00 | 0.00 | 55 | 1018.1 |
| 20260901220046 | 36 | 113 | 4.8 | 14.5 | 0.00 | 0.00 | 0.00 | 53 | 1018.1 |
| 20260901214546 | 35 | 178 | 4.8 | 14.5 | 0.00 | 0.00 | 0.00 | 54 | 1018.2 |
| 20260901213045 | 36 | 152 | 8.0 | 16.1 | 0.00 | 0.00 | 0.00 | 54 | 1018.0 |
| 20260901211544 | 36 | 170 | 6.4 | 16.1 | 0.00 | 0.00 | 0.00 | 56 | 1018.2 |
| 20260901210043 | 35 | 146 | 4.8 | 16.1 | 0.00 | 0.00 | 0.00 | 55 | 1018.2 |
| 20260901204541 | 36 | 122 | 8.0 | 17.7 | 0.00 | 0.00 | 0.00 | 55 | 1018.3 |
| 20260901203043 | 36 | 186 | 8.0 | 16.1 | 0.00 | 0.00 | 0.00 | 54 | 1018.3 |
| 20260901201539 | 36 | 114 | 8.0 | 17.7 | 0.00 | 0.00 | 0.00 | 54 | 1018.4 |
| 20260901200044 | 36 | 165 | 6.4 | 16.1 | 0.00 | 0.00 | 0.00 | 57 | 1018.5 |
| 20260901194551 | 35 | 213 | 9.7 | 16.1 | 0.00 | 0.00 | 0.00 | 56 | 1018.7 |
| 20260901193035 | 35 | 177 | 6.4 | 17.7 | 0.00 | 0.00 | 0.00 | 54 | 1018.9 |
| 20260901191535 | 35 | 226 | 6.4 | 16.1 | 0.00 | 0.00 | 0.00 | 57 | 1019.2 |
| 20260901190043 | 35 | 151 | 0.0 | 8.0 | 0.00 | 0.00 | 0.00 | 56 | 1019.3 |
| 20260901184532 | 36 | 157 | 6.4 | 20.9 | 0.00 | 0.00 | 0.00 | 56 | 1019.4 |
| 20260901183028 | 35 | 148 | 4.8 | 14.5 | 0.00 | 0.00 | 0.00 | 59 | 1019.7 |
| 20260901181535 | 35 | 190 | 8.0 | 17.7 | 0.00 | 0.00 | 0.00 | 60 | 1019.8 |
| 20260901180033 | 34 | 236 | 6.4 | 12.9 | 0.00 | 0.00 | 0.00 | 61 | 1019.9 |
| 20260901174525 | 35 | 236 | 4.8 | 11.3 | 0.00 | 0.00 | 0.00 | 60 | 1020.1 |
| 20260901173022 | 34 | 240 | 9.7 | 16.1 | 0.00 | 0.00 | 0.00 | 61 | 1020.2 |
| 20260901171521 | 33 | 271 | 9.7 | 16.1 | 0.00 | 0.00 | 0.00 | 61 | 1020.5 |
| 20260901170028 | 33 | 197 | 8.0 | 16.1 | 0.00 | 0.00 | 0.00 | 64 | 1020.8 |
| 20260901164516 | 33 | 255 | 3.2 | 14.5 | 0.00 | 0.00 | 0.00 | 63 | 1020.8 |
| 20260901163018 | 33 | 190 | 3.2 | 14.5 | 0.00 | 0.00 | 0.00 | 66 | 1020.9 |
| 20260901161509 | 32 | 215 | 8.0 | 16.1 | 0.00 | 0.00 | 0.00 | 67 | 1021.1 |
| 20260901160005 | 32 | 248 | 8.0 | 14.5 | 0.00 | 0.00 | 0.00 | 70 | 1021.1 |
| 20260901154501 | 32 | 222 | 9.7 | 17.7 | 0.00 | 0.00 | 0.00 | 70 | 1021.3 |
| 20260901153122 | 31 | 216 | 9.7 | 16.1 | 0.00 | 0.00 | 0.00 | 72 | 1021.1 |
| 20260901151555 | 31 | 228 | 8.0 | 16.1 | 0.00 | 0.00 | 0.00 | 74 | 1021.2 |
| 20260901150052 | 31 | 218 | 6.4 | 14.5 | 0.00 | 0.00 | 0.00 | 76 | 1021.3 |
| 20260901144551 | 30 | 206 | 8.0 | 12.9 | 0.00 | 0.00 | 0.00 | 78 | 1021.3 |
| 20260901143049 | 29 | 240 | 4.8 | 6.4 | 0.00 | 0.00 | 0.00 | 81 | 1021.2 |
| 20260901141543 | 28 | 223 | 3.2 | 8.0 | 0.00 | 0.00 | 0.00 | 84 | 1021.4 |
| 20260901140037 | 27 | 213 | 3.2 | 8.0 | 0.00 | 0.00 | 0.00 | 87 | 1021.4 |
| 20260901134534 | 26 | 218 | 4.8 | 8.0 | 0.00 | 0.00 | 0.00 | 88 | 1021.3 |
| 20260901133038 | 26 | 219 | 4.8 | 8.0 | 0.00 | 0.00 | 0.00 | 90 | 1021.3 |
| 20260901131536 | 25 | 222 | 3.2 | 8.0 | 0.00 | 0.00 | 0.00 | 92 | 1021.3 |
| 20260901130030 | 24 | 222 | 4.8 | 8.0 | 0.00 | 0.00 | 0.00 | 93 | 1021.4 |
| 20260901124531 | 24 | 194 | 3.2 | 8.0 | 0.00 | 0.00 | 0.00 | 94 | 1021.3 |
| 20260901123038 | 23 | 164 | 1.6 | 4.8 | 0.00 | 0.00 | 0.00 | 94 | 1021.3 |
| 20260901121528 | 23 | 164 | 1.6 | 4.8 | 0.00 | 0.00 | 0.00 | 93 | 1021.1 |
| 20260901120024 | 22 | 164 | 1.6 | 4.8 | 0.00 | 0.00 | 0.00 | 93 | 1020.9 |
| 20260901114522 | 23 | 163 | 0.0 | 3.2 | 0.00 | 0.00 | 0.00 | 92 | 1020.6 |
| 20260901113021 | 23 | 163 | 1.6 | 3.2 | 0.00 | 0.00 | 0.00 | 92 | 1020.4 |
| 20260901111519 | 23 | 163 | 1.6 | 8.0 | 0.00 | 0.00 | 0.00 | 92 | 1020.2 |
| 20260901110021 | 23 | 164 | 1.6 | 6.4 | 0.00 | 0.00 | 0.00 | 92 | 1020.1 |
| 20260901104525 | 23 | 156 | 3.2 | 8.0 | 0.00 | 0.00 | 0.00 | 92 | 1020.1 |
| 20260901103015 | 23 | 164 | 1.6 | 4.8 | 0.00 | 0.00 | 0.00 | 91 | 1020.0 |
| 20260901101514 | 23 | 161 | 3.2 | 6.4 | 0.00 | 0.00 | 0.00 | 91 | 1020.0 |
| 20260901100013 | 23 | 160 | 1.6 | 4.8 | 0.00 | 0.00 | 0.00 | 91 | 1020.0 |
| 20260901094512 | 23 | 161 | 0.0 | 0.0 | 0.00 | 0.00 | 0.00 | 91 | 1019.9 |
| 20260901093012 | 23 | 161 | 0.0 | 0.0 | 0.00 | 0.00 | 0.00 | 91 | 1019.8 |
| 20260901091512 | 23 | 160 | 0.0 | 1.6 | 0.00 | 0.00 | 0.00 | 92 | 1019.7 |
| 20260901090010 | 23 | 161 | 0.0 | 0.0 | 0.00 | 0.00 | 0.00 | 92 | 1019.6 |
| 20260901084508 | 23 | 161 | 1.6 | 3.2 | 0.00 | 0.00 | 0.00 | 91 | 1019.6 |
| 20260901083023 | 23 | 160 | 3.2 | 4.8 | 0.00 | 0.00 | 0.00 | 91 | 1019.5 |
| 20260901081506 | 23 | 160 | 1.6 | 3.2 | 0.00 | 0.00 | 0.00 | 91 | 1019.3 |
| 20260901080005 | 23 | 160 | 0.0 | 1.6 | 0.00 | 0.00 | 0.00 | 91 | 1019.1 |
| 20260901074508 | 23 | 160 | 1.6 | 3.2 | 0.00 | 0.00 | 0.00 | 90 | 1019.2 |
| 20260901073006 | 24 | 160 | 1.6 | 3.2 | 0.00 | 0.00 | 0.00 | 90 | 1019.0 |
| 20260901071502 | 24 | 160 | 1.6 | 4.8 | 0.00 | 0.00 | 0.00 | 90 | 1019.1 |
| 20260901070100 | 24 | 159 | 0.0 | 4.8 | 0.00 | 0.00 | 0.00 | 90 | 1018.8 |
| 20260901064559 | 24 | 159 | 3.2 | 4.8 | 0.00 | 0.00 | 0.00 | 90 | 1018.8 |
| 20260901063101 | 24 | 158 | 1.6 | 4.8 | 0.00 | 0.00 | 0.00 | 89 | 1019.2 |
| 20260901061601 | 24 | 146 | 1.6 | 4.8 | 0.00 | 0.00 | 0.00 | 88 | 1019.2 |
| 20260901060054 | 24 | 129 | 1.6 | 3.2 | 0.00 | 0.00 | 0.00 | 88 | 1019.2 |
| 20260901054552 | 25 | 129 | 0.0 | 1.6 | 0.00 | 0.00 | 0.00 | 86 | 1019.3 |
| 20260901053117 | 25 | 128 | 1.6 | 4.8 | 0.00 | 0.00 | 0.00 | 86 | 1019.2 |
| 20260901051548 | 25 | 127 | 3.2 | 6.4 | 0.00 | 0.00 | 0.00 | 84 | 1019.1 |
| 20260901050046 | 26 | 128 | 4.8 | 6.4 | 0.00 | 0.00 | 0.00 | 82 | 1019.3 |
| 20260901044542 | 27 | 104 | 1.6 | 6.4 | 0.00 | 0.00 | 0.00 | 81 | 1019.3 |
| 20260901043042 | 27 | 101 | 0.0 | 4.8 | 0.00 | 0.00 | 0.00 | 80 | 1019.3 |
| 20260901041542 | 27 | 113 | 4.8 | 6.4 | 0.00 | 0.00 | 0.00 | 78 | 1019.3 |
| 20260901040040 | 27 | 134 | 1.6 | 4.8 | 0.00 | 0.00 | 0.00 | 78 | 1019.2 |
| 20260901034539 | 27 | 137 | 3.2 | 8.0 | 0.00 | 0.00 | 0.00 | 76 | 1019.3 |
| 20260901033045 | 27 | 131 | 4.8 | 6.4 | 0.00 | 0.00 | 0.00 | 78 | 1019.4 |
| 20260901031548 | 27 | 113 | 1.6 | 3.2 | 0.00 | 0.00 | 0.00 | 79 | 1019.4 |
| 20260901030038 | 27 | 113 | 1.6 | 6.4 | 0.00 | 0.00 | 0.00 | 79 | 1019.4 |
| 20260901024537 | 28 | 101 | 1.6 | 4.8 | 0.00 | 0.00 | 0.00 | 79 | 1019.4 |
| 20260901023041 | 28 | 101 | 0.0 | 6.4 | 0.00 | 0.00 | 0.00 | 79 | 1019.3 |